Location: ????????
(55.8351°N, 38.7040°E)
Time: 13:19:07
(UTC+00:00)

ALOS - Pass Details

Date: 14 April 2024
Orbit: 674 x 675 km, 98.0° (Epoch: 23 May)

Event Time Altitude Azimuth Distance (km) Brightness Sun altitude
Rises 00:02:12 0° 18° (NNE) 3,049 6.9 -17.0°
Reaches altitude 10° 00:04:31 10° 23° (NNE) 2,129 6.0 -16.8°
Maximum altitude 00:09:04 52° 100° (E) 851 2.9 -16.4°
Enters shadow 00:12:50 14° 174° (S) 1,827 4.1 -16.0°
